| time (UTC) | temp F | wind direction | speed MPH | gust MPH | rain 1hr in | rain 24hr in | rain mn in | humidity % | barometer mb |
| 20260508192056 | 68 | 0 | 0.0 | 2.0 | 0.00 | 0.00 | 0.00 | 55 | 1014.3 |
| 20260508191607 | 68 | 108 | 0.0 | 3.0 | 0.00 | 0.00 | 0.00 | 57 | 1014.4 |
| 20260508191054 | 68 | 98 | 0.0 | 3.0 | 0.00 | 0.00 | 0.00 | 53 | 1014.7 |
| 20260508190555 | 68 | 0 | 0.0 | 3.0 | 0.00 | 0.00 | 0.00 | 56 | 1014.6 |
| 20260508190106 | 68 | 0 | 0.0 | 2.0 | 0.00 | 0.00 | 0.00 | 58 | 1014.9 |
| 20260508185555 | 67 | 0 | 0.0 | 1.0 | 0.00 | 0.00 | 0.00 | 58 | 1015.0 |
| 20260508185055 | 67 | 0 | 0.0 | 2.0 | 0.00 | 0.00 | 0.00 | 53 | 1015.1 |
| 20260508184610 | 67 | 0 | 0.0 | 3.0 | 0.00 | 0.00 | 0.00 | 53 | 1015.0 |
| 20260508184055 | 67 | 0 | 0.0 | 3.0 | 0.00 | 0.00 | 0.00 | 52 | 1015.0 |
| 20260508183557 | 67 | 72 | 0.0 | 4.0 | 0.00 | 0.00 | 0.00 | 49 | 1015.1 |
| 20260508183108 | 67 | 142 | 0.0 | 4.0 | 0.00 | 0.00 | 0.00 | 53 | 1015.1 |
| 20260508182554 | 67 | 38 | 0.0 | 4.0 | 0.00 | 0.00 | 0.00 | 49 | 1015.2 |
| 20260508182055 | 67 | 96 | 0.0 | 4.0 | 0.00 | 0.00 | 0.00 | 52 | 1015.2 |
| 20260508181559 | 68 | 0 | 1.0 | 4.0 | 0.00 | 0.00 | 0.00 | 52 | 1015.3 |
| 20260508181055 | 67 | 123 | 0.0 | 3.0 | 0.00 | 0.00 | 0.00 | 53 | 1015.5 |
| 20260508180555 | 68 | 58 | 0.0 | 3.0 | 0.00 | 0.00 | 0.00 | 51 | 1015.6 |
| 20260508180059 | 67 | 0 | 0.0 | 6.0 | 0.00 | 0.00 | 0.00 | 47 | 1015.7 |
| 20260508175555 | 67 | 173 | 0.0 | 6.0 | 0.00 | 0.00 | 0.00 | 49 | 1015.7 |
| 20260508175054 | 67 | 105 | 0.0 | 4.0 | 0.00 | 0.00 | 0.00 | 46 | 1015.7 |
| 20260508174605 | 68 | 138 | 0.0 | 6.0 | 0.00 | 0.00 | 0.00 | 53 | 1015.9 |
| 20260508174057 | 68 | 73 | 0.0 | 6.0 | 0.00 | 0.00 | 0.00 | 48 | 1016.1 |
| 20260508173556 | 68 | 22 | 1.0 | 5.0 | 0.00 | 0.00 | 0.00 | 47 | 1016.3 |
| 20260508173055 | 68 | 171 | 1.0 | 5.0 | 0.00 | 0.00 | 0.00 | 47 | 1016.5 |
| 20260508172555 | 68 | 87 | 0.0 | 3.0 | 0.00 | 0.00 | 0.00 | 47 | 1016.6 |
| 20260508172055 | 68 | 147 | 0.0 | 3.0 | 0.00 | 0.00 | 0.00 | 48 | 1016.5 |
| 20260508171600 | 67 | 0 | 0.0 | 3.0 | 0.00 | 0.00 | 0.00 | 51 | 1016.7 |
| 20260508171058 | 67 | 57 | 0.0 | 3.0 | 0.00 | 0.00 | 0.00 | 47 | 1017.1 |
| 20260508170601 | 67 | 180 | 0.0 | 5.0 | 0.00 | 0.00 | 0.00 | 48 | 1017.1 |
| 20260508170058 | 66 | 213 | 2.0 | 5.0 | 0.00 | 0.00 | 0.00 | 50 | 1017.2 |
| 20260508165555 | 67 | 206 | 1.0 | 3.0 | 0.00 | 0.00 | 0.00 | 52 | 1017.4 |
| 20260508165055 | 67 | 0 | 1.0 | 2.0 | 0.00 | 0.00 | 0.00 | 48 | 1017.4 |
| 20260508164605 | 66 | 205 | 0.0 | 2.0 | 0.00 | 0.00 | 0.00 | 50 | 1017.2 |
| 20260508164057 | 66 | 191 | 0.0 | 3.0 | 0.00 | 0.00 | 0.00 | 44 | 1017.4 |
| 20260508163557 | 66 | 0 | 0.0 | 4.0 | 0.00 | 0.00 | 0.00 | 51 | 1017.4 |
| 20260508163116 | 66 | 209 | 1.0 | 4.0 | 0.00 | 0.00 | 0.00 | 51 | 1017.3 |
| 20260508162557 | 66 | 140 | 0.0 | 4.0 | 0.00 | 0.00 | 0.00 | 48 | 1017.2 |
| 20260508162057 | 66 | 145 | 1.0 | 5.0 | 0.00 | 0.00 | 0.00 | 48 | 1017.3 |
| 20260508161558 | 66 | 67 | 0.0 | 5.0 | 0.00 | 0.00 | 0.00 | 46 | 1017.4 |
| 20260508161057 | 65 | 94 | 1.0 | 9.0 | 0.00 | 0.00 | 0.00 | 51 | 1017.5 |
| 20260508160557 | 65 | 42 | 2.0 | 9.0 | 0.00 | 0.00 | 0.00 | 48 | 1017.4 |
| 20260508160058 | 65 | 35 | 2.0 | 9.0 | 0.00 | 0.00 | 0.00 | 51 | 1017.5 |
| 20260508155556 | 65 | 37 | 0.0 | 3.0 | 0.00 | 0.00 | 0.00 | 51 | 1017.7 |
| 20260508155101 | 64 | 0 | 1.0 | 3.0 | 0.00 | 0.00 | 0.00 | 50 | 1017.8 |
| 20260508154559 | 64 | 0 | 1.0 | 4.0 | 0.00 | 0.00 | 0.00 | 55 | 1017.7 |
| 20260508154057 | 64 | 200 | 0.0 | 4.0 | 0.00 | 0.00 | 0.00 | 53 | 1017.8 |
| 20260508153557 | 64 | 198 | 1.0 | 4.0 | 0.00 | 0.00 | 0.00 | 52 | 1017.8 |
| 20260508153059 | 64 | 0 | 1.0 | 4.0 | 0.00 | 0.00 | 0.00 | 53 | 1017.8 |
| 20260508152556 | 64 | 57 | 1.0 | 8.0 | 0.00 | 0.00 | 0.00 | 51 | 1017.9 |
| 20260508152057 | 64 | 93 | 2.0 | 8.0 | 0.00 | 0.00 | 0.00 | 52 | 1017.8 |
| 20260508151556 | 64 | 34 | 1.0 | 6.0 | 0.00 | 0.00 | 0.00 | 53 | 1017.9 |
| 20260508151057 | 63 | 0 | 2.0 | 6.0 | 0.00 | 0.00 | 0.00 | 53 | 1017.9 |
| 20260508150600 | 64 | 59 | 1.0 | 6.0 | 0.00 | 0.00 | 0.00 | 51 | 1017.9 |
| 20260508150100 | 63 | 55 | 0.0 | 6.0 | 0.00 | 0.00 | 0.00 | 57 | 1018.0 |
| 20260508145557 | 63 | 51 | 1.0 | 4.0 | 0.00 | 0.01 | 0.00 | 55 | 1018.2 |
| 20260508145103 | 63 | 0 | 1.0 | 8.0 | 0.00 | 0.01 | 0.00 | 55 | 1018.2 |
| 20260508144555 | 63 | 0 | 1.0 | 8.0 | 0.00 | 0.01 | 0.00 | 55 | 1018.3 |
| 20260508144057 | 63 | 80 | 2.0 | 10.0 | 0.00 | 0.01 | 0.00 | 56 | 1018.3 |
| 20260508143557 | 63 | 70 | 2.0 | 10.0 | 0.00 | 0.01 | 0.00 | 59 | 1018.3 |
| 20260508143058 | 62 | 71 | 1.0 | 4.0 | 0.00 | 0.01 | 0.00 | 60 | 1018.4 |
| 20260508142557 | 61 | 0 | 0.0 | 2.0 | 0.00 | 0.01 | 0.00 | 61 | 1018.5 |
| 20260508142100 | 61 | 207 | 0.0 | 2.0 | 0.00 | 0.01 | 0.00 | 64 | 1018.6 |
| 20260508141601 | 61 | 0 | 1.0 | 2.0 | 0.00 | 0.01 | 0.00 | 62 | 1018.6 |
| 20260508141057 | 61 | 144 | 0.0 | 3.0 | 0.00 | 0.01 | 0.00 | 65 | 1018.5 |
| 20260508140557 | 61 | 51 | 1.0 | 3.0 | 0.00 | 0.01 | 0.00 | 62 | 1018.4 |
| 20260508140059 | 60 | 0 | 0.0 | 3.0 | 0.00 | 0.01 | 0.00 | 67 | 1018.5 |
| 20260508135557 | 60 | 0 | 0.0 | 3.0 | 0.00 | 0.01 | 0.00 | 66 | 1018.5 |
| 20260508135057 | 60 | 0 | 1.0 | 4.0 | 0.00 | 0.01 | 0.00 | 65 | 1018.5 |
| 20260508134601 | 60 | 34 | 0.0 | 5.0 | 0.00 | 0.01 | 0.00 | 64 | 1018.5 |
| 20260508134056 | 60 | 101 | 2.0 | 5.0 | 0.00 | 0.01 | 0.00 | 64 | 1018.5 |
| 20260508133559 | 59 | 40 | 0.0 | 5.0 | 0.00 | 0.01 | 0.00 | 68 | 1018.5 |
| 20260508133106 | 59 | 74 | 0.0 | 2.0 | 0.00 | 0.01 | 0.00 | 70 | 1018.6 |
| 20260508132556 | 58 | 0 | 0.0 | 2.0 | 0.00 | 0.01 | 0.00 | 75 | 1018.6 |
| 20260508132058 | 58 | 0 | 0.0 | 2.0 | 0.00 | 0.01 | 0.00 | 74 | 1018.7 |
| 20260508131559 | 57 | 91 | 0.0 | 2.0 | 0.00 | 0.01 | 0.00 | 75 | 1018.7 |
| 20260508131059 | 56 | 53 | 0.0 | 2.0 | 0.00 | 0.01 | 0.00 | 80 | 1018.6 |
| 20260508130557 | 56 | 0 | 0.0 | 1.0 | 0.00 | 0.01 | 0.00 | 83 | 1018.5 |
| 20260508130108 | 55 | 0 | 0.0 | 1.0 | 0.00 | 0.01 | 0.00 | 81 | 1018.4 |
| 20260508125557 | 54 | 0 | 0.0 | 1.0 | 0.00 | 0.01 | 0.00 | 87 | 1018.3 |
| 20260508125057 | 54 | 0 | 0.0 | 1.0 | 0.00 | 0.01 | 0.00 | 87 | 1018.2 |
| 20260508124559 | 54 | 0 | 0.0 | 1.0 | 0.00 | 0.01 | 0.00 | 88 | 1018.1 |
| 20260508124057 | 53 | 0 | 0.0 | 1.0 | 0.00 | 0.01 | 0.00 | 90 | 1018.1 |
| 20260508123600 | 53 | 0 | 0.0 | 1.0 | 0.00 | 0.01 | 0.00 | 92 | 1018.1 |
| 20260508123056 | 52 | 0 | 0.0 | 1.0 | 0.00 | 0.01 | 0.00 | 95 | 1018.3 |
| 20260508122556 | 51 | 0 | 0.0 | 0.0 | 0.00 | 0.01 | 0.00 | 95 | 1018.3 |
| 20260508122057 | 50 | 0 | 0.0 | 0.0 | 0.00 | 0.01 | 0.00 | 96 | 1018.4 |
| 20260508121557 | 50 | 0 | 0.0 | 0.0 | 0.00 | 0.01 | 0.00 | 96 | 1018.3 |
| 20260508121058 | 49 | 0 | 0.0 | 0.0 | 0.00 | 0.01 | 0.00 | 96 | 1018.3 |
| 20260508120557 | 49 | 0 | 0.0 | 0.0 | 0.00 | 0.01 | 0.00 | 96 | 1018.3 |
| 20260508120057 | 49 | 0 | 0.0 | 0.0 | 0.00 | 0.01 | 0.00 | 96 | 1018.2 |
| 20260508115557 | 48 | 0 | 0.0 | 0.0 | 0.00 | 0.01 | 0.00 | 96 | 1018.2 |
| 20260508115059 | 48 | 0 | 0.0 | 0.0 | 0.00 | 0.01 | 0.00 | 96 | 1018.2 |
| 20260508114602 | 47 | 0 | 0.0 | 0.0 | 0.00 | 0.01 | 0.00 | 96 | 1018.1 |
| 20260508114057 | 47 | 0 | 0.0 | 0.0 | 0.00 | 0.01 | 0.00 | 96 | 1018.1 |
| 20260508113557 | 47 | 0 | 0.0 | 0.0 | 0.00 | 0.01 | 0.00 | 96 | 1018.0 |
| 20260508113058 | 46 | 0 | 0.0 | 0.0 | 0.00 | 0.01 | 0.00 | 96 | 1018.0 |
| 20260508112557 | 47 | 0 | 0.0 | 0.0 | 0.00 | 0.01 | 0.00 | 96 | 1017.8 |
| 20260508112056 | 47 | 0 | 0.0 | 0.0 | 0.00 | 0.01 | 0.00 | 96 | 1017.8 |
| 20260508111556 | 46 | 0 | 0.0 | 0.0 | 0.00 | 0.01 | 0.00 | 96 | 1017.8 |
| 20260508111057 | 47 | 0 | 0.0 | 0.0 | 0.00 | 0.01 | 0.00 | 95 | 1017.7 |
| 20260508110556 | 47 | 0 | 0.0 | 0.0 | 0.00 | 0.01 | 0.00 | 95 | 1017.5 |
| 20260508110130 | 46 | 0 | 0.0 | 0.0 | 0.00 | 0.01 | 0.00 | 95 | 1017.4 |
| 20260508105556 | 46 | 0 | 0.0 | 0.0 | 0.00 | 0.01 | 0.00 | 95 | 1017.3 |
| 20260508105057 | 46 | 0 | 0.0 | 0.0 | 0.00 | 0.01 | 0.00 | 95 | 1017.3 |
| 20260508104604 | 46 | 0 | 0.0 | 0.0 | 0.00 | 0.01 | 0.00 | 95 | 1017.3 |
| 20260508104056 | 47 | 0 | 0.0 | 0.0 | 0.00 | 0.01 | 0.00 | 95 | 1017.2 |
| 20260508103557 | 47 | 0 | 0.0 | 0.0 | 0.00 | 0.01 | 0.00 | 95 | 1017.1 |
| 20260508103058 | 47 | 0 | 0.0 | 0.0 | 0.00 | 0.01 | 0.00 | 95 | 1017.1 |
| 20260508102557 | 47 | 0 | 0.0 | 0.0 | 0.00 | 0.01 | 0.00 | 94 | 1017.0 |
| 20260508102057 | 47 | 0 | 0.0 | 0.0 | 0.00 | 0.01 | 0.00 | 94 | 1016.9 |
| 20260508101600 | 47 | 0 | 0.0 | 0.0 | 0.00 | 0.01 | 0.00 | 94 | 1017.0 |
| 20260508101057 | 47 | 0 | 0.0 | 0.0 | 0.00 | 0.01 | 0.00 | 94 | 1016.8 |
| 20260508100556 | 48 | 0 | 0.0 | 0.0 | 0.00 | 0.01 | 0.00 | 94 | 1016.8 |
| 20260508100100 | 48 | 0 | 0.0 | 0.0 | 0.00 | 0.01 | 0.00 | 93 | 1016.9 |
| 20260508095600 | 48 | 0 | 0.0 | 1.0 | 0.00 | 0.02 | 0.00 | 94 | 1016.8 |
| 20260508095056 | 48 | 0 | 0.0 | 1.0 | 0.00 | 0.02 | 0.00 | 93 | 1016.7 |
| 20260508094600 | 48 | 0 | 0.0 | 0.0 | 0.00 | 0.02 | 0.00 | 93 | 1016.5 |
| 20260508094057 | 48 | 0 | 0.0 | 0.0 | 0.00 | 0.02 | 0.00 | 93 | 1016.5 |
| 20260508093558 | 48 | 0 | 0.0 | 0.0 | 0.00 | 0.02 | 0.00 | 92 | 1016.5 |
| 20260508093102 | 49 | 0 | 0.0 | 0.0 | 0.00 | 0.02 | 0.00 | 92 | 1016.5 |
| 20260508092601 | 49 | 0 | 0.0 | 0.0 | 0.00 | 0.02 | 0.00 | 92 | 1016.3 |
| 20260508092057 | 49 | 0 | 0.0 | 0.0 | 0.00 | 0.02 | 0.00 | 91 | 1016.4 |
| 20260508091556 | 49 | 0 | 0.0 | 1.0 | 0.00 | 0.02 | 0.00 | 91 | 1016.5 |
| 20260508091057 | 50 | 0 | 0.0 | 2.0 | 0.00 | 0.02 | 0.00 | 89 | 1016.5 |
| 20260508090557 | 50 | 317 | 0.0 | 2.0 | 0.00 | 0.02 | 0.00 | 88 | 1016.5 |
| 20260508090110 | 50 | 317 | 1.0 | 2.0 | 0.00 | 0.02 | 0.00 | 87 | 1016.3 |
| 20260508085556 | 50 | 0 | 0.0 | 2.0 | 0.00 | 0.26 | 0.00 | 87 | 1016.4 |
| 20260508085056 | 50 | 316 | 0.0 | 2.0 | 0.00 | 0.26 | 0.00 | 88 | 1016.4 |
| 20260508084601 | 50 | 316 | 0.0 | 2.0 | 0.00 | 0.26 | 0.00 | 88 | 1016.4 |
| 20260508084059 | 50 | 304 | 0.0 | 2.0 | 0.00 | 0.26 | 0.00 | 88 | 1016.4 |
| 20260508083558 | 50 | 314 | 0.0 | 2.0 | 0.00 | 0.26 | 0.00 | 89 | 1016.3 |
| 20260508083055 | 50 | 0 | 0.0 | 1.0 | 0.00 | 0.26 | 0.00 | 89 | 1016.2 |
| 20260508082557 | 50 | 0 | 0.0 | 1.0 | 0.00 | 0.26 | 0.00 | 90 | 1016.2 |
| 20260508082057 | 50 | 0 | 0.0 | 1.0 | 0.00 | 0.26 | 0.00 | 91 | 1016.2 |
| 20260508081614 | 50 | 0 | 0.0 | 2.0 | 0.00 | 0.26 | 0.00 | 91 | 1016.2 |
| 20260508081058 | 50 | 0 | 0.0 | 2.0 | 0.00 | 0.26 | 0.00 | 91 | 1016.2 |
| 20260508080557 | 50 | 0 | 0.0 | 2.0 | 0.00 | 0.26 | 0.00 | 90 | 1016.1 |
| 20260508080100 | 50 | 0 | 0.0 | 2.0 | 0.00 | 0.26 | 0.00 | 90 | 1016.2 |
| 20260508075558 | 51 | 0 | 0.0 | 2.0 | 0.00 | 0.29 | 0.00 | 89 | 1016.1 |
| 20260508075056 | 51 | 0 | 0.0 | 1.0 | 0.00 | 0.29 | 0.00 | 89 | 1016.1 |
| 20260508074557 | 51 | 310 | 0.0 | 2.0 | 0.00 | 0.29 | 0.00 | 90 | 1016.0 |
| 20260508074102 | 51 | 0 | 0.0 | 2.0 | 0.00 | 0.29 | 0.00 | 90 | 1016.3 |
| 20260508073558 | 51 | 0 | 0.0 | 3.0 | 0.00 | 0.29 | 0.00 | 89 | 1016.2 |
| 20260508073057 | 51 | 0 | 0.0 | 3.0 | 0.00 | 0.29 | 0.00 | 90 | 1016.2 |
| 20260508072557 | 51 | 302 | 1.0 | 3.0 | 0.00 | 0.29 | 0.00 | 90 | 1016.2 |
| 20260508072059 | 51 | 309 | 0.0 | 2.0 | 0.00 | 0.29 | 0.00 | 92 | 1016.2 |
| 20260508071555 | 50 | 309 | 0.0 | 2.0 | 0.00 | 0.29 | 0.00 | 93 | 1016.2 |
| 20260508071100 | 50 | 309 | 0.0 | 1.0 | 0.00 | 0.29 | 0.00 | 94 | 1016.2 |
| 20260508070556 | 50 | 0 | 0.0 | 0.0 | 0.00 | 0.29 | 0.00 | 94 | 1016.3 |
| 20260508070057 | 50 | 0 | 0.0 | 0.0 | 0.00 | 0.29 | 0.00 | 95 | 1016.4 |
| 20260508065558 | 50 | 0 | 0.0 | 0.0 | 0.00 | 0.29 | 0.00 | 95 | 1016.5 |
| 20260508065056 | 50 | 0 | 0.0 | 0.0 | 0.00 | 0.29 | 0.00 | 95 | 1016.4 |
| 20260508064556 | 50 | 0 | 0.0 | 0.0 | 0.00 | 0.29 | 0.00 | 95 | 1016.4 |
| 20260508064058 | 50 | 0 | 0.0 | 0.0 | 0.00 | 0.29 | 0.00 | 94 | 1016.5 |
| 20260508063556 | 50 | 0 | 0.0 | 0.0 | 0.00 | 0.29 | 0.00 | 94 | 1016.6 |
| 20260508063055 | 50 | 0 | 0.0 | 0.0 | 0.00 | 0.29 | 0.00 | 94 | 1016.5 |
| 20260508062556 | 50 | 0 | 0.0 | 0.0 | 0.00 | 0.29 | 0.00 | 94 | 1016.6 |
| 20260508062056 | 50 | 0 | 0.0 | 0.0 | 0.00 | 0.29 | 0.00 | 94 | 1016.7 |
| 20260508061606 | 50 | 0 | 0.0 | 0.0 | 0.00 | 0.29 | 0.00 | 94 | 1016.7 |
| 20260508061058 | 50 | 0 | 0.0 | 0.0 | 0.00 | 0.29 | 0.00 | 93 | 1016.8 |
| 20260508060557 | 51 | 0 | 0.0 | 0.0 | 0.00 | 0.29 | 0.00 | 94 | 1016.7 |
| 20260508060057 | 51 | 0 | 0.0 | 0.0 | 0.00 | 0.29 | 0.00 | 94 | 1016.8 |
| 20260508055557 | 51 | 0 | 0.0 | 0.0 | 0.00 | 0.29 | 0.00 | 93 | 1016.9 |
| 20260508055057 | 51 | 0 | 0.0 | 0.0 | 0.00 | 0.29 | 0.00 | 93 | 1016.8 |
| 20260508054632 | 51 | 0 | 0.0 | 0.0 | 0.00 | 0.29 | 0.00 | 94 | 1016.9 |
| 20260508054056 | 51 | 0 | 0.0 | 0.0 | 0.00 | 0.29 | 0.00 | 94 | 1017.0 |
| 20260508053558 | 51 | 0 | 0.0 | 0.0 | 0.00 | 0.29 | 0.00 | 94 | 1017.0 |
| 20260508053059 | 52 | 0 | 0.0 | 0.0 | 0.00 | 0.29 | 0.00 | 94 | 1017.0 |
| 20260508052558 | 52 | 0 | 0.0 | 0.0 | 0.00 | 0.29 | 0.00 | 94 | 1017.1 |
| 20260508052057 | 52 | 0 | 0.0 | 0.0 | 0.00 | 0.29 | 0.00 | 94 | 1016.8 |
| 20260508051558 | 52 | 0 | 0.0 | 0.0 | 0.00 | 0.29 | 0.00 | 94 | 1016.7 |
| 20260508051057 | 51 | 0 | 0.0 | 0.0 | 0.00 | 0.29 | 0.00 | 94 | 1017.0 |
| 20260508050557 | 51 | 0 | 0.0 | 0.0 | 0.00 | 0.29 | 0.00 | 94 | 1016.9 |
| 20260508050057 | 51 | 0 | 0.0 | 1.0 | 0.00 | 0.29 | 0.00 | 94 | 1016.8 |
| 20260508045556 | 51 | 0 | 0.0 | 1.0 | 0.00 | 0.29 | 0.29 | 94 | 1016.7 |
| 20260508045056 | 51 | 0 | 0.0 | 1.0 | 0.00 | 0.29 | 0.29 | 95 | 1016.7 |
| 20260508044602 | 51 | 0 | 0.0 | 0.0 | 0.00 | 0.29 | 0.29 | 94 | 1016.6 |
| 20260508044100 | 51 | 0 | 0.0 | 0.0 | 0.00 | 0.29 | 0.29 | 94 | 1016.5 |
| 20260508043557 | 51 | 0 | 0.0 | 0.0 | 0.00 | 0.29 | 0.29 | 94 | 1016.4 |
| 20260508043055 | 51 | 0 | 0.0 | 0.0 | 0.00 | 0.29 | 0.29 | 94 | 1016.3 |
| 20260508042557 | 51 | 0 | 0.0 | 0.0 | 0.00 | 0.29 | 0.29 | 94 | 1016.4 |
| 20260508042057 | 51 | 0 | 0.0 | 0.0 | 0.00 | 0.29 | 0.29 | 93 | 1016.4 |
| 20260508041600 | 51 | 0 | 0.0 | 0.0 | 0.00 | 0.29 | 0.29 | 93 | 1016.4 |
| 20260508041100 | 51 | 0 | 0.0 | 0.0 | 0.00 | 0.29 | 0.29 | 93 | 1016.4 |
| 20260508040557 | 52 | 0 | 0.0 | 0.0 | 0.00 | 0.29 | 0.29 | 93 | 1016.4 |
| 20260508040100 | 52 | 0 | 0.0 | 0.0 | 0.00 | 0.29 | 0.29 | 93 | 1016.4 |
| 20260508035556 | 52 | 0 | 0.0 | 0.0 | 0.00 | 0.30 | 0.29 | 93 | 1016.4 |
| 20260508035057 | 52 | 0 | 0.0 | 0.0 | 0.00 | 0.30 | 0.29 | 93 | 1016.4 |
| 20260508034602 | 52 | 0 | 0.0 | 0.0 | 0.00 | 0.30 | 0.29 | 93 | 1016.4 |
| 20260508034056 | 52 | 0 | 0.0 | 0.0 | 0.00 | 0.30 | 0.29 | 93 | 1016.4 |
| 20260508033556 | 52 | 0 | 0.0 | 0.0 | 0.00 | 0.30 | 0.29 | 92 | 1016.4 |
| 20260508033057 | 52 | 0 | 0.0 | 0.0 | 0.00 | 0.30 | 0.29 | 92 | 1016.5 |
| 20260508032558 | 52 | 0 | 0.0 | 0.0 | 0.00 | 0.30 | 0.29 | 92 | 1016.4 |
| 20260508032056 | 53 | 0 | 0.0 | 0.0 | 0.00 | 0.30 | 0.29 | 92 | 1016.4 |
| 20260508031602 | 53 | 0 | 0.0 | 0.0 | 0.00 | 0.30 | 0.29 | 92 | 1016.4 |
| 20260508031059 | 53 | 0 | 0.0 | 0.0 | 0.00 | 0.30 | 0.29 | 92 | 1016.4 |
| 20260508030558 | 53 | 0 | 0.0 | 0.0 | 0.00 | 0.30 | 0.29 | 92 | 1016.3 |
| 20260508030112 | 53 | 0 | 0.0 | 0.0 | 0.00 | 0.30 | 0.29 | 92 | 1016.3 |
| 20260508025557 | 53 | 0 | 0.0 | 0.0 | 0.00 | 0.37 | 0.29 | 92 | 1016.4 |
| 20260508025058 | 53 | 0 | 0.0 | 0.0 | 0.00 | 0.37 | 0.29 | 92 | 1016.3 |
| 20260508024606 | 53 | 0 | 0.0 | 0.0 | 0.00 | 0.37 | 0.29 | 91 | 1016.3 |
| 20260508024057 | 54 | 0 | 0.0 | 0.0 | 0.00 | 0.37 | 0.29 | 91 | 1016.2 |
| 20260508023558 | 54 | 0 | 0.0 | 0.0 | 0.00 | 0.37 | 0.29 | 90 | 1016.3 |
| 20260508023058 | 54 | 0 | 0.0 | 0.0 | 0.00 | 0.37 | 0.29 | 89 | 1016.2 |
| 20260508022556 | 54 | 0 | 0.0 | 0.0 | 0.00 | 0.37 | 0.29 | 89 | 1016.2 |
| 20260508022057 | 54 | 0 | 0.0 | 0.0 | 0.00 | 0.37 | 0.29 | 89 | 1016.2 |
| 20260508021616 | 54 | 0 | 0.0 | 0.0 | 0.00 | 0.37 | 0.29 | 90 | 1016.2 |
| 20260508021059 | 54 | 0 | 0.0 | 0.0 | 0.00 | 0.37 | 0.29 | 89 | 1016.1 |
| 20260508020556 | 55 | 0 | 0.0 | 0.0 | 0.00 | 0.37 | 0.29 | 88 | 1016.1 |
| 20260508020059 | 55 | 0 | 0.0 | 0.0 | 0.00 | 0.37 | 0.29 | 89 | 1016.1 |
| 20260508015556 | 55 | 0 | 0.0 | 0.0 | 0.00 | 0.37 | 0.29 | 90 | 1016.1 |
| 20260508015056 | 55 | 0 | 0.0 | 0.0 | 0.00 | 0.37 | 0.29 | 89 | 1016.1 |
| 20260508014556 | 55 | 0 | 0.0 | 0.0 | 0.00 | 0.37 | 0.29 | 88 | 1015.8 |
| 20260508014057 | 56 | 0 | 0.0 | 0.0 | 0.00 | 0.37 | 0.29 | 87 | 1015.8 |
| 20260508013556 | 56 | 0 | 0.0 | 0.0 | 0.00 | 0.37 | 0.29 | 87 | 1015.9 |
| 20260508013110 | 55 | 0 | 0.0 | 0.0 | 0.00 | 0.37 | 0.29 | 89 | 1015.6 |
| 20260508012557 | 55 | 0 | 0.0 | 0.0 | 0.00 | 0.37 | 0.29 | 90 | 1015.8 |
| 20260508012057 | 56 | 0 | 0.0 | 0.0 | 0.00 | 0.37 | 0.29 | 89 | 1015.6 |
| 20260508011602 | 56 | 0 | 0.0 | 0.0 | 0.00 | 0.37 | 0.29 | 88 | 1015.7 |
| 20260508011101 | 56 | 0 | 0.0 | 0.0 | 0.00 | 0.37 | 0.29 | 87 | 1015.6 |
| 20260508010557 | 57 | 0 | 0.0 | 0.0 | 0.00 | 0.37 | 0.29 | 86 | 1015.5 |
| 20260508010055 | 57 | 0 | 0.0 | 0.0 | 0.00 | 0.37 | 0.29 | 86 | 1015.4 |
| 20260508005559 | 57 | 0 | 0.0 | 0.0 | 0.00 | 0.37 | 0.29 | 87 | 1015.3 |
| 20260508005100 | 57 | 0 | 0.0 | 0.0 | 0.00 | 0.37 | 0.29 | 87 | 1015.5 |
| 20260508004600 | 57 | 0 | 0.0 | 0.0 | 0.00 | 0.37 | 0.29 | 88 | 1015.5 |
| 20260508004057 | 58 | 0 | 0.0 | 0.0 | 0.00 | 0.37 | 0.29 | 87 | 1015.6 |
| 20260508003556 | 58 | 0 | 0.0 | 0.0 | 0.00 | 0.37 | 0.29 | 86 | 1015.5 |
| 20260508003105 | 59 | 0 | 0.0 | 0.0 | 0.00 | 0.37 | 0.29 | 84 | 1015.4 |
| 20260508002557 | 59 | 0 | 0.0 | 0.0 | 0.00 | 0.37 | 0.29 | 83 | 1015.4 |
| 20260508002056 | 60 | 0 | 0.0 | 1.0 | 0.00 | 0.37 | 0.29 | 82 | 1015.2 |
| 20260508001558 | 60 | 0 | 0.0 | 1.0 | 0.00 | 0.37 | 0.29 | 82 | 1015.2 |
| 20260508001057 | 61 | 0 | 0.0 | 1.0 | 0.00 | 0.37 | 0.29 | 80 | 1015.1 |
| 20260508000556 | 61 | 0 | 0.0 | 0.0 | 0.00 | 0.37 | 0.29 | 79 | 1014.9 |
| 20260508000057 | 62 | 0 | 0.0 | 0.0 | 0.00 | 0.37 | 0.29 | 77 | 1014.9 |
| 20260507235557 | 62 | 0 | 0.0 | 2.0 | 0.00 | 0.38 | 0.29 | 74 | 1014.8 |
| 20260507235057 | 63 | 0 | 0.0 | 2.0 | 0.00 | 0.38 | 0.29 | 66 | 1014.8 |
| 20260507234557 | 63 | 0 | 0.0 | 2.0 | 0.00 | 0.38 | 0.29 | 62 | 1014.8 |
| 20260507234057 | 64 | 0 | 0.0 | 6.0 | 0.00 | 0.38 | 0.29 | 61 | 1014.7 |
| 20260507233559 | 65 | 309 | 1.0 | 6.0 | 0.00 | 0.38 | 0.29 | 58 | 1014.7 |
| 20260507233055 | 65 | 296 | 0.0 | 5.0 | 0.00 | 0.38 | 0.29 | 58 | 1014.7 |
| 20260507232556 | 65 | 312 | 1.0 | 5.0 | 0.00 | 0.38 | 0.29 | 58 | 1014.7 |
| 20260507232056 | 65 | 319 | 0.0 | 4.0 | 0.00 | 0.38 | 0.29 | 57 | 1014.7 |
| 20260507231559 | 66 | 272 | 0.0 | 4.0 | 0.00 | 0.38 | 0.29 | 57 | 1014.8 |
| 20260507231056 | 66 | 0 | 0.0 | 6.0 | 0.00 | 0.38 | 0.29 | 57 | 1014.8 |
| 20260507230557 | 66 | 0 | 1.0 | 6.0 | 0.00 | 0.38 | 0.29 | 57 | 1014.8 |
| 20260507230100 | 66 | 38 | 2.0 | 6.0 | 0.00 | 0.38 | 0.29 | 56 | 1014.8 |
| 20260507225557 | 66 | 360 | 1.0 | 5.0 | 0.00 | 0.44 | 0.29 | 57 | 1014.7 |
| 20260507225056 | 66 | 312 | 2.0 | 5.0 | 0.00 | 0.44 | 0.29 | 56 | 1014.9 |
| 20260507224604 | 66 | 273 | 1.0 | 4.0 | 0.00 | 0.44 | 0.29 | 57 | 1014.8 |
| 20260507224057 | 67 | 288 | 1.0 | 4.0 | 0.00 | 0.44 | 0.29 | 57 | 1014.8 |
| 20260507223600 | 66 | 0 | 1.0 | 5.0 | 0.00 | 0.44 | 0.29 | 59 | 1014.9 |
| 20260507223100 | 67 | 0 | 1.0 | 6.0 | 0.00 | 0.44 | 0.29 | 57 | 1014.8 |
| 20260507222559 | 67 | 352 | 1.0 | 7.0 | 0.00 | 0.44 | 0.29 | 57 | 1014.8 |
| 20260507222057 | 67 | 299 | 2.0 | 7.0 | 0.00 | 0.44 | 0.29 | 56 | 1014.8 |
| 20260507221557 | 66 | 59 | 0.0 | 3.0 | 0.00 | 0.44 | 0.29 | 58 | 1014.7 |
| 20260507221057 | 67 | 25 | 1.0 | 6.0 | 0.00 | 0.44 | 0.29 | 56 | 1014.7 |
| 20260507220556 | 67 | 298 | 1.0 | 6.0 | 0.00 | 0.44 | 0.29 | 57 | 1014.8 |
| 20260507220055 | 67 | 319 | 1.0 | 5.0 | 0.00 | 0.44 | 0.29 | 58 | 1014.8 |
| 20260507215559 | 67 | 285 | 1.0 | 5.0 | 0.00 | 0.52 | 0.29 | 58 | 1014.7 |
| 20260507215056 | 67 | 291 | 1.0 | 8.0 | 0.00 | 0.52 | 0.29 | 58 | 1014.7 |
| 20260507214555 | 67 | 0 | 1.0 | 8.0 | 0.00 | 0.52 | 0.29 | 60 | 1014.7 |
| 20260507214059 | 67 | 0 | 0.0 | 6.0 | 0.00 | 0.52 | 0.29 | 61 | 1014.6 |
| 20260507213556 | 67 | 292 | 1.0 | 7.0 | 0.00 | 0.52 | 0.29 | 59 | 1014.7 |
| 20260507213055 | 67 | 284 | 2.0 | 7.0 | 0.00 | 0.52 | 0.29 | 57 | 1014.6 |
| 20260507212557 | 66 | 360 | 1.0 | 6.0 | 0.00 | 0.52 | 0.29 | 57 | 1014.7 |
| 20260507212056 | 67 | 5 | 2.0 | 6.0 | 0.00 | 0.52 | 0.29 | 56 | 1014.7 |
| 20260507211557 | 67 | 0 | 2.0 | 5.0 | 0.00 | 0.52 | 0.29 | 57 | 1014.6 |
| 20260507211057 | 67 | 308 | 0.0 | 3.0 | 0.00 | 0.52 | 0.29 | 57 | 1014.6 |
| 20260507210556 | 67 | 334 | 1.0 | 5.0 | 0.00 | 0.52 | 0.29 | 60 | 1014.6 |
| 20260507210119 | 67 | 313 | 1.0 | 5.0 | 0.00 | 0.52 | 0.29 | 59 | 1014.6 |
| 20260507205557 | 66 | 316 | 0.0 | 4.0 | 0.00 | 1.08 | 0.29 | 60 | 1014.6 |
| 20260507205057 | 66 | 11 | 1.0 | 8.0 | 0.00 | 1.08 | 0.29 | 60 | 1014.7 |
| 20260507204600 | 66 | 0 | 1.0 | 8.0 | 0.00 | 1.08 | 0.29 | 59 | 1014.6 |
| 20260507204102 | 66 | 306 | 1.0 | 7.0 | 0.00 | 1.08 | 0.29 | 60 | 1014.7 |
| 20260507203557 | 66 | 323 | 0.0 | 7.0 | 0.00 | 1.08 | 0.29 | 61 | 1014.6 |
| 20260507203059 | 66 | 336 | 1.0 | 7.0 | 0.00 | 1.08 | 0.29 | 59 | 1014.7 |
| 20260507202557 | 66 | 352 | 1.0 | 6.0 | 0.00 | 1.08 | 0.29 | 60 | 1014.8 |
| 20260507202058 | 66 | 0 | 2.0 | 6.0 | 0.00 | 1.08 | 0.29 | 61 | 1014.7 |
| 20260507201602 | 66 | 351 | 2.0 | 8.0 | 0.00 | 1.08 | 0.29 | 62 | 1014.8 |
| 20260507201059 | 65 | 302 | 0.0 | 9.0 | 0.00 | 1.08 | 0.29 | 62 | 1014.9 |
| 20260507200557 | 66 | 302 | 1.0 | 10.0 | 0.00 | 1.08 | 0.29 | 62 | 1014.9 |
| 20260507200106 | 66 | 316 | 1.0 | 10.0 | 0.00 | 1.08 | 0.29 | 61 | 1014.8 |
| 20260507195558 | 66 | 298 | 2.0 | 8.0 | 0.00 | 1.16 | 0.29 | 60 | 1014.8 |
| 20260507195056 | 67 | 0 | 1.0 | 8.0 | 0.00 | 1.16 | 0.29 | 61 | 1014.6 |
| 20260507194555 | 68 | 5 | 1.0 | 9.0 | 0.00 | 1.16 | 0.29 | 60 | 1014.7 |
| 20260507194100 | 67 | 0 | 0.0 | 9.0 | 0.00 | 1.16 | 0.29 | 67 | 1014.7 |
| 20260507193558 | 68 | 314 | 3.0 | 9.0 | 0.00 | 1.16 | 0.29 | 58 | 1014.7 |
| 20260507193123 | 68 | 344 | 1.0 | 6.0 | 0.00 | 1.16 | 0.29 | 60 | 1014.7 |
| 20260507192556 | 67 | 323 | 2.0 | 5.0 | 0.00 | 1.16 | 0.29 | 60 | 1014.7 |